Time,TemperatureF,DewpointF,PressureIn,WindDirection,WindDirectionDegrees,WindSpeedMPH,WindSpeedGustMPH,Humidity,HourlyPrecipIn,Conditions,Clouds,dailyrainin,SolarRadiationWatts/m^2,SoftwareType,DateUTC
2013-02-11 00:00:00,35.0,23.0,30.03,North,3,4.0,-999.0,62,0.00,,,-99.99,-3.500000,,2013-02-11 08:00:00,
2013-02-11 00:22:00,35.0,23.0,30.03,North,3,4.0,-999.0,62,0.00,,,-99.99,-3.500000,,2013-02-11 08:22:00,
2013-02-11 00:32:00,35.0,23.0,30.03,North,3,4.0,-999.0,62,0.00,,,-99.99,-3.500000,,2013-02-11 08:32:00,
2013-02-11 00:42:00,35.0,23.0,30.03,North,3,4.0,-999.0,62,0.00,,,-99.99,-3.500000,,2013-02-11 08:42:00,
2013-02-11 00:52:00,35.0,23.0,30.03,North,3,4.0,-999.0,62,0.00,,,-99.99,-3.500000,,2013-02-11 08:52:00,
2013-02-11 01:00:00,31.0,23.0,30.04,North,4,2.0,-999.0,71,0.00,,,-99.99,-3.300000,,2013-02-11 09:00:00,
2013-02-11 01:22:00,31.0,23.0,30.04,North,4,2.0,-999.0,71,0.00,,,-99.99,-3.300000,,2013-02-11 09:22:00,
2013-02-11 01:32:00,31.0,23.0,30.04,North,4,2.0,-999.0,71,0.00,,,-99.99,-3.300000,,2013-02-11 09:32:00,
2013-02-11 01:42:00,31.0,23.0,30.04,North,4,2.0,-999.0,71,0.00,,,-99.99,-3.300000,,2013-02-11 09:42:00,
2013-02-11 01:52:00,31.0,23.0,30.04,North,4,2.0,-999.0,71,0.00,,,-99.99,-3.300000,,2013-02-11 09:52:00,
2013-02-11 03:00:00,31.0,23.0,30.05,NE,48,3.0,-999.0,70,0.00,,,-99.99,-2.200000,,2013-02-11 11:00:00,
2013-02-11 03:22:00,31.0,23.0,30.05,NE,48,3.0,-999.0,70,0.00,,,-99.99,-2.200000,,2013-02-11 11:22:00,
2013-02-11 03:32:00,31.0,23.0,30.05,NE,48,3.0,-999.0,70,0.00,,,-99.99,-2.200000,,2013-02-11 11:32:00,
2013-02-11 03:42:00,31.0,23.0,30.05,NE,48,3.0,-999.0,70,0.00,,,-99.99,-2.200000,,2013-02-11 11:42:00,
2013-02-11 03:52:00,31.0,23.0,30.05,NE,48,3.0,-999.0,70,0.00,,,-99.99,-2.200000,,2013-02-11 11:52:00,
2013-02-11 04:00:00,32.0,22.0,30.05,NNE,18,3.0,-999.0,65,0.00,,,-99.99,-1.700000,,2013-02-11 12:00:00,
2013-02-11 04:22:00,32.0,22.0,30.05,NNE,18,3.0,-999.0,65,0.00,,,-99.99,-1.700000,,2013-02-11 12:22:00,
2013-02-11 04:32:00,32.0,22.0,30.05,NNE,18,3.0,-999.0,65,0.00,,,-99.99,-1.700000,,2013-02-11 12:32:00,
2013-02-11 04:42:00,32.0,22.0,30.05,NNE,18,3.0,-999.0,65,0.00,,,-99.99,-1.700000,,2013-02-11 12:42:00,
2013-02-11 04:52:00,32.0,22.0,30.05,NNE,18,3.0,-999.0,65,0.00,,,-99.99,-1.700000,,2013-02-11 12:52:00,
2013-02-11 06:00:00,27.0,22.0,30.07,NE,36,3.0,-999.0,80,0.00,,,-99.99,-1.300000,,2013-02-11 14:00:00,
2013-02-11 06:22:00,27.0,22.0,30.07,NE,36,3.0,-999.0,80,0.00,,,-99.99,-1.300000,,2013-02-11 14:22:00,
2013-02-11 06:33:00,27.0,22.0,30.07,NE,36,3.0,-999.0,80,0.00,,,-99.99,-1.300000,,2013-02-11 14:33:00,
2013-02-11 06:42:00,27.0,22.0,30.07,NE,36,3.0,-999.0,80,0.00,,,-99.99,-1.300000,,2013-02-11 14:42:00,
2013-02-11 06:52:00,27.0,22.0,30.07,NE,36,3.0,-999.0,80,0.00,,,-99.99,-1.300000,,2013-02-11 14:52:00,
2013-02-11 07:00:00,29.0,21.0,30.09,NNE,22,3.0,-999.0,71,0.00,,,-99.99,-1.000000,,2013-02-11 15:00:00,
2013-02-11 07:22:00,29.0,21.0,30.09,NNE,22,3.0,-999.0,71,0.00,,,-99.99,-1.000000,,2013-02-11 15:22:00,
2013-02-11 07:32:00,29.0,21.0,30.09,NNE,22,3.0,-999.0,71,0.00,,,-99.99,-1.000000,,2013-02-11 15:32:00,
2013-02-11 07:42:00,29.0,21.0,30.09,NNE,22,3.0,-999.0,71,0.00,,,-99.99,-1.000000,,2013-02-11 15:42:00,
2013-02-11 07:52:00,29.0,21.0,30.09,NNE,22,3.0,-999.0,71,0.00,,,-99.99,-1.000000,,2013-02-11 15:52:00,
2013-02-11 08:00:00,32.0,22.0,30.10,North,5,5.0,-999.0,65,0.00,,,-99.99,19.100000,,2013-02-11 16:00:00,
2013-02-11 08:22:00,32.0,22.0,30.10,North,5,5.0,-999.0,65,0.00,,,-99.99,19.100000,,2013-02-11 16:22:00,
2013-02-11 08:32:00,32.0,22.0,30.10,North,5,5.0,-999.0,65,0.00,,,-99.99,19.100000,,2013-02-11 16:32:00,
2013-02-11 08:42:00,32.0,22.0,30.10,North,5,5.0,-999.0,65,0.00,,,-99.99,19.100000,,2013-02-11 16:42:00,
2013-02-11 08:52:00,32.0,22.0,30.10,North,5,5.0,-999.0,65,0.00,,,-99.99,19.100000,,2013-02-11 16:52:00,
2013-02-11 09:00:00,39.0,23.0,30.11,NNE,17,5.0,-999.0,53,0.00,,,-99.99,80.400002,,2013-02-11 17:00:00,
2013-02-11 09:22:00,39.0,23.0,30.11,NNE,17,5.0,-999.0,53,0.00,,,-99.99,80.400002,,2013-02-11 17:22:00,
2013-02-11 09:32:00,39.0,23.0,30.11,NNE,17,5.0,-999.0,53,0.00,,,-99.99,80.400002,,2013-02-11 17:32:00,
2013-02-11 09:42:00,39.0,23.0,30.11,NNE,17,5.0,-999.0,53,0.00,,,-99.99,80.400002,,2013-02-11 17:42:00,
2013-02-11 09:52:00,39.0,23.0,30.11,NNE,17,5.0,-999.0,53,0.00,,,-99.99,80.400002,,2013-02-11 17:52:00,
2013-02-11 10:00:00,50.0,20.0,30.14,ENE,67,2.0,-999.0,31,0.00,,,-99.99,419.500000,,2013-02-11 18:00:00,
2013-02-11 10:22:00,50.0,20.0,30.14,ENE,67,2.0,-999.0,31,0.00,,,-99.99,419.500000,,2013-02-11 18:22:00,
2013-02-11 10:32:00,50.0,20.0,30.14,ENE,67,2.0,-999.0,31,0.00,,,-99.99,419.500000,,2013-02-11 18:32:00,
2013-02-11 10:42:00,50.0,20.0,30.14,ENE,67,2.0,-999.0,31,0.00,,,-99.99,419.500000,,2013-02-11 18:42:00,
2013-02-11 10:53:00,50.0,20.0,30.14,ENE,67,2.0,-999.0,31,0.00,,,-99.99,419.500000,,2013-02-11 18:53:00,
2013-02-11 11:00:00,53.0,19.0,30.15,East,86,3.0,-999.0,26,0.00,,,-99.99,551.099976,,2013-02-11 19:00:00,
2013-02-11 11:22:00,53.0,19.0,30.15,East,86,3.0,-999.0,26,0.00,,,-99.99,551.099976,,2013-02-11 19:22:00,
2013-02-11 11:32:00,53.0,19.0,30.15,East,86,3.0,-999.0,26,0.00,,,-99.99,551.099976,,2013-02-11 19:32:00,
2013-02-11 11:42:00,53.0,19.0,30.15,East,86,3.0,-999.0,26,0.00,,,-99.99,551.099976,,2013-02-11 19:42:00,
2013-02-11 11:51:00,53.0,19.0,30.15,East,86,3.0,-999.0,26,0.00,,,-99.99,551.099976,,2013-02-11 19:51:00,
2013-02-11 12:00:00,55.0,19.0,30.14,WSW,249,3.0,-999.0,24,0.00,,,-99.99,631.000000,,2013-02-11 20:00:00,
2013-02-11 12:22:00,55.0,19.0,30.14,WSW,249,3.0,-999.0,24,0.00,,,-99.99,631.000000,,2013-02-11 20:22:00,
2013-02-11 12:32:00,55.0,19.0,30.14,WSW,249,3.0,-999.0,24,0.00,,,-99.99,631.000000,,2013-02-11 20:32:00,
2013-02-11 12:42:00,55.0,19.0,30.14,WSW,249,3.0,-999.0,24,0.00,,,-99.99,631.000000,,2013-02-11 20:42:00,
2013-02-11 12:52:00,55.0,19.0,30.14,WSW,249,3.0,-999.0,24,0.00,,,-99.99,631.000000,,2013-02-11 20:52:00,
2013-02-11 13:00:00,56.0,20.0,30.12,SW,214,2.0,-999.0,24,0.00,,,-99.99,646.900024,,2013-02-11 21:00:00,
2013-02-11 13:22:00,56.0,20.0,30.12,SW,214,2.0,-999.0,24,0.00,,,-99.99,646.900024,,2013-02-11 21:22:00,
2013-02-11 13:32:00,56.0,20.0,30.12,SW,214,2.0,-999.0,24,0.00,,,-99.99,646.900024,,2013-02-11 21:32:00,
2013-02-11 13:42:00,56.0,20.0,30.12,SW,214,2.0,-999.0,24,0.00,,,-99.99,646.900024,,2013-02-11 21:42:00,
2013-02-11 13:52:00,56.0,20.0,30.12,SW,214,2.0,-999.0,24,0.00,,,-99.99,646.900024,,2013-02-11 21:52:00,
2013-02-11 15:00:00,54.0,28.0,30.12,SW,236,4.0,-999.0,36,0.00,,,-99.99,373.799988,,2013-02-11 23:00:00,
2013-02-11 15:22:00,54.0,28.0,30.12,SW,236,4.0,-999.0,36,0.00,,,-99.99,373.799988,,2013-02-11 23:22:00,
2013-02-11 15:32:00,54.0,28.0,30.12,SW,236,4.0,-999.0,36,0.00,,,-99.99,373.799988,,2013-02-11 23:32:00,
2013-02-11 15:42:00,54.0,28.0,30.12,SW,236,4.0,-999.0,36,0.00,,,-99.99,373.799988,,2013-02-11 23:42:00,
2013-02-11 15:52:00,54.0,28.0,30.12,SW,236,4.0,-999.0,36,0.00,,,-99.99,373.799988,,2013-02-11 23:52:00,
2013-02-11 16:00:00,53.0,28.0,30.12,South,176,2.0,-999.0,38,0.00,,,-99.99,163.500000,,2013-02-12 00:00:00,
2013-02-11 16:22:00,53.0,28.0,30.12,South,176,2.0,-999.0,38,0.00,,,-99.99,163.500000,,2013-02-12 00:22:00,
2013-02-11 16:32:00,53.0,28.0,30.12,South,176,2.0,-999.0,38,0.00,,,-99.99,163.500000,,2013-02-12 00:32:00,
2013-02-11 16:42:00,53.0,28.0,30.12,South,176,2.0,-999.0,38,0.00,,,-99.99,163.500000,,2013-02-12 00:42:00,
2013-02-11 16:52:00,53.0,28.0,30.12,South,176,2.0,-999.0,38,0.00,,,-99.99,163.500000,,2013-02-12 00:52:00,
2013-02-11 17:00:00,50.0,28.0,30.13,SSW,205,0.0,-999.0,43,0.00,,,-99.99,34.099998,,2013-02-12 01:00:00,
2013-02-11 17:32:00,50.0,28.0,30.13,SSW,205,0.0,-999.0,43,0.00,,,-99.99,34.099998,,2013-02-12 01:32:00,
2013-02-11 17:42:00,50.0,28.0,30.13,SSW,205,0.0,-999.0,43,0.00,,,-99.99,34.099998,,2013-02-12 01:42:00,
2013-02-11 17:52:00,50.0,28.0,30.13,SSW,205,0.0,-999.0,43,0.00,,,-99.99,34.099998,,2013-02-12 01:52:00,
2013-02-11 19:00:00,37.0,29.0,30.15,North,352,0.0,-999.0,71,0.00,,,-99.99,-2.200000,,2013-02-12 03:00:00,
2013-02-11 19:21:00,37.0,29.0,30.15,North,352,0.0,-999.0,71,0.00,,,-99.99,-2.200000,,2013-02-12 03:21:00,
2013-02-11 19:32:00,37.0,29.0,30.15,North,352,0.0,-999.0,71,0.00,,,-99.99,-2.200000,,2013-02-12 03:32:00,
2013-02-11 19:42:00,37.0,29.0,30.15,North,352,0.0,-999.0,71,0.00,,,-99.99,-2.200000,,2013-02-12 03:42:00,
2013-02-11 19:52:00,37.0,29.0,30.15,North,352,0.0,-999.0,71,0.00,,,-99.99,-2.200000,,2013-02-12 03:52:00,
2013-02-11 20:00:00,35.0,29.0,30.16,South,182,1.0,-999.0,78,0.00,,,-99.99,-1.300000,,2013-02-12 04:00:00,
2013-02-11 20:21:00,35.0,29.0,30.16,South,182,1.0,-999.0,78,0.00,,,-99.99,-1.300000,,2013-02-12 04:21:00,
2013-02-11 20:32:00,35.0,29.0,30.16,South,182,1.0,-999.0,78,0.00,,,-99.99,-1.300000,,2013-02-12 04:32:00,
2013-02-11 20:42:00,35.0,29.0,30.16,South,182,1.0,-999.0,78,0.00,,,-99.99,-1.300000,,2013-02-12 04:42:00,
2013-02-11 20:52:00,35.0,29.0,30.16,South,182,1.0,-999.0,78,0.00,,,-99.99,-1.300000,,2013-02-12 04:52:00,
2013-02-11 23:00:00,32.0,28.0,30.18,South,187,1.0,-999.0,86,0.00,,,-99.99,-2.000000,,2013-02-12 07:00:00,
2013-02-11 23:22:00,32.0,28.0,30.18,South,187,1.0,-999.0,86,0.00,,,-99.99,-2.000000,,2013-02-12 07:22:00,
2013-02-11 23:32:00,32.0,28.0,30.18,South,187,1.0,-999.0,86,0.00,,,-99.99,-2.000000,,2013-02-12 07:32:00,
2013-02-11 23:42:00,32.0,28.0,30.18,South,187,1.0,-999.0,86,0.00,,,-99.99,-2.000000,,2013-02-12 07:42:00,
2013-02-11 23:52:00,32.0,28.0,30.18,South,187,1.0,-999.0,86,0.00,,,-99.99,-2.000000,,2013-02-12 07:52:00,